Location: Westerlo
(51.0830°N, 4.9170°E)
Time: 08:48:22
(UTC+02:00)

ISS - Pass Details

Date: 27 July 2019
Orbit: 410 x 421 km, 51.6° (Epoch: 24 August)

Event Time Altitude Azimuth Distance (km) Brightness Sun altitude
Rises 00:14:50 0° 285° (WNW) 2,373 0.6 -16.7°
Reaches altitude 10° 00:16:59 10° 279° (W) 1,505 -0.5 -16.9°
Maximum altitude 00:20:15 48° 204° (SSW) 557 -3.5 -17.1°
Enters shadow 00:20:29 47° 189° (S) 566 -3.5 -17.1°
